Wind_Speed
5 4 3 6 8 10 8 3 3 3 3 1 3 1 2 2 2 3 3 2 2 1 2 1 1 0 0 2 5 4 5 5 5 3 3 4 5 12 17 14 13 19 20 20 23 27 28 27 25 24 24 23 23 22 20 19 18 17 16 15 14 14 12 12 12 11 11 11 11 10 9 8 8 8 8 7 7 7 8 8 6 7 6 5 5 6 7 7 6 4 3 2 2 4 4 4 4
5 4 3 5 6 5 3 3 4 3 5 2 3 1 2 3 4 3 3 3 2 4 3 2 1 1 2 1 2 0 4 7 5 3 2 5 8 14 17 12 14 19 20 20 23 28 29 28 26 25 25 24 23 23 22 20 19 18 17 17 14 14 13 13 13 13 12 12 11 11 10 9 7 7 7 7 7 6 7 7 6 6 6 5 6 7 7 7 6 3 1 1 2 4 3 2 2
6 5 6 6 4 1 1 3 4 2 4 2 3 3 1 3 2 4 5 5 6 5 2 0 1 0 2 4 0 2 4 4 3 2 2 7 7 11 16 14 15 17 19 19 22 29 30 29 27 26 25 25 24 23 23 21 20 19 17 17 15 14 14 13 14 13 13 12 12 11 10 10 9 8 8 8 7 6 6 6 7 7 6 6 6 7 7 6 5 2 1 1 2 4 2 1 2
7 5 8 6 3 2 3 3 2 4 2 1 1 5 1 3 2 2 5 6 6 4 2 1 1 1 3 1 2 2 3 3 2 4 4 8 6 9 15 16 17 17 18 17 21 28 30 29 28 26 26 25 25 24 23 22 21 20 18 17 16 16 15 14 14 14 13 12 12 11 10 10 10 9 9 9 7 7 6 6 7 7 6 7 7 7 6 5 4 2 1 1 2 2 1 1 3
8 6 6 3 3 1 2 2 1 4 0 3 2 4 1 3 2 2 1 2 2 4 3 2 1 3 0 3 2 2 3 1 1 7 8 10 8 8 13 18 19 18 18 16 19 26 30 30 28 27 25 25 25 25 25 23 21 20 18 17 16 17 16 15 14 14 13 12 12 11 10 10 10 10 10 9 8 7 7 7 8 7 7 8 7 6 5 4 3 2 1 0 1 2 1 2 5
9 8 3 0 1 1 2 1 1 1 4 4 4 4 1 3 2 3 4 2 2 3 3 2 0 1 1 4 2 3 4 2 2 7 9 10 9 8 12 18 19 18 18 16 17 24 29 30 29 28 26 25 24 24 25 24 22 20 19 18 17 17 17 16 15 15 14 13 12 12 11 11 11 11 11 11 10 8 7 8 7 7 7 7 6 6 5 4 2 2 1 1 1 3 3 4 6
9 7 2 2 2 1 4 1 2 3 5 4 6 3 2 3 3 4 5 2 3 4 3 0 1 2 2 3 2 3 1 2 4 6 7 9 9 8 12 18 20 20 19 16 17 20 26 29 29 28 27 26 24 24 24 23 22 21 20 19 18 18 18 17 16 15 14 14 12 12 11 12 12 12 13 12 12 9 7 8 7 7 8 7 5 5 4 3 1 1 1 1 1 3 3 5 6
5 2 1 4 2 2 3 1 3 3 3 2 5 3 3 3 3 4 3 2 1 1 1 2 3 3 4 3 1 4 1 3 3 7 8 8 9 9 12 18 20 21 19 16 16 17 22 27 29 28 27 26 24 24 24 23 22 21 20 20 19 18 19 17 16 16 15 14 13 12 12 13 13 14 14 13 12 10 9 9 8 7 8 7 6 6 5 2 1 1 1 1 3 4 4 5 5
2 1 2 3 2 3 2 3 3 3 2 1 2 3 4 3 4 3 2 3 1 1 1 4 5 3 5 5 3 5 1 5 5 8 9 7 9 9 12 17 19 20 20 17 15 16 19 23 28 29 28 27 25 25 24 23 22 21 21 20 19 19 19 17 17 17 16 15 14 14 14 15 14 14 14 13 12 10 10 9 8 8 9 8 7 6 6 4 3 3 2 3 5 5 5 4 2
3 1 2 2 2 3 4 3 3 3 2 1 2 4 5 3 3 3 1 3 1 0 2 4 4 1 3 4 5 4 2 8 9 9 9 8 8 9 11 14 17 19 19 19 18 17 17 20 24 28 29 28 26 25 25 23 23 23 21 20 20 19 18 18 17 17 17 16 15 15 15 16 15 15 15 13 12 10 10 10 9 9 10 10 7 5 6 6 4 3 3 5 7 5 4 1 3
3 2 2 3 3 2 2 3 4 4 4 2 2 1 4 4 2 2 1 3 3 1 2 1 1 3 2 3 5 2 5 10 9 9 9 9 8 9 11 12 15 17 17 20 20 18 18 18 21 25 28 28 27 26 25 25 24 24 22 21 21 19 19 18 18 18 18 17 17 16 16 16 16 16 16 14 11 10 10 10 10 10 10 10 8 6 6 6 5 4 3 5 7 4 1 2 4
2 3 3 3 1 2 3 3 6 5 5 2 1 4 1 5 3 2 2 3 4 5 2 1 0 2 0 3 4 1 8 10 9 8 9 9 8 9 11 13 15 15 15 18 21 20 18 19 20 23 26 28 28 27 27 26 26 25 23 22 22 21 20 19 18 18 18 18 18 18 17 17 17 17 16 14 11 10 11 10 9 8 8 9 9 8 6 6 6 5 5 6 6 3 1 4 5
2 1 5 1 3 1 2 3 5 4 5 1 2 4 1 5 1 3 0 2 4 6 2 4 1 2 1 4 3 2 6 7 7 9 8 8 8 9 10 14 16 15 16 18 20 20 19 20 22 23 25 27 28 29 28 27 27 27 26 24 24 23 22 20 19 19 19 19 19 18 18 17 18 17 15 13 12 12 11 10 9 8 8 8 9 8 7 7 7 6 8 9 5 3 3 5 6
0 0 4 1 2 2 2 2 2 2 3 3 2 3 1 1 4 3 2 4 6 2 3 5 2 2 3 3 4 4 5 9 9 9 8 8 9 9 9 12 15 17 17 19 20 20 20 20 22 24 25 27 28 30 29 29 28 28 28 27 26 25 23 22 20 19 20 21 19 19 18 18 18 17 16 14 13 13 12 11 9 8 9 8 10 9 9 8 7 9 11 9 5 3 4 5 6
1 0 4 1 3 3 1 2 2 3 3 5 3 2 1 2 3 3 2 2 7 5 1 3 2 2 3 2 4 5 6 12 12 10 10 10 9 10 10 10 13 17 19 20 20 21 21 21 22 24 26 27 29 30 31 30 30 29 29 28 28 26 24 23 22 21 22 22 20 19 18 18 18 17 16 15 14 14 13 12 11 10 10 9 10 10 10 9 9 11 12 9 6 5 5 6 6
2 3 4 2 2 2 2 2 2 3 3 5 2 2 2 5 1 3 4 4 4 5 1 3 2 3 5 4 9 10 6 12 13 12 12 11 10 11 12 11 11 16 19 20 22 22 22 22 22 24 26 28 29 30 31 32 31 30 29 29 28 27 25 24 23 23 23 23 21 19 19 20 19 17 16 15 15 15 15 14 13 11 11 11 11 10 10 10 10 10 10 9 7 6 6 6 6
3 4 4 2 1 1 3 1 2 1 4 4 4 2 3 5 3 0 3 1 3 6 4 5 4 4 6 10 19 15 7 12 13 13 12 12 11 10 12 13 12 15 19 21 23 24 24 24 24 24 26 27 29 30 32 33 32 31 30 29 28 27 26 24 24 24 24 24 22 21 21 22 21 19 17 16 17 17 16 15 14 12 11 12 12 11 11 10 11 10 9 8 8 6 6 6 6
4 3 2 1 2 3 4 2 2 1 2 4 3 1 4 2 4 2 3 3 4 6 8 6 5 8 11 19 23 13 8 12 13 14 13 13 12 12 13 15 16 17 19 21 23 25 26 26 26 25 26 26 28 30 32 33 34 33 31 30 28 28 27 26 25 25 25 25 24 23 23 24 23 22 20 18 18 18 17 16 15 13 12 12 14 13 12 12 12 11 10 9 8 7 7 7 7
3 3 2 3 5 5 4 3 5 3 3 4 3 4 5 2 4 2 2 7 5 6 9 8 9 11 12 18 16 9 11 14 15 16 14 14 14 15 15 16 18 19 20 22 24 25 27 27 27 27 27 26 27 29 32 33 34 34 33 31 29 28 28 27 27 26 26 26 26 25 25 25 23 23 22 20 20 19 18 17 16 15 13 13 14 14 13 13 13 12 11 10 9 8 8 8 8
2 3 2 6 6 5 7 6 6 5 2 3 4 4 5 5 3 2 4 8 7 6 8 7 12 13 10 11 9 5 13 14 15 16 15 17 17 17 17 17 20 21 21 22 23 24 26 27 28 28 27 27 27 28 30 32 33 34 33 31 29 29 29 28 28 27 28 28 28 27 26 25 24 23 22 21 20 20 19 18 17 16 15 14 14 16 15 15 15 13 12 12 10 9 9 8 8
1 4 4 7 4 3 7 7 7 5 2 2 2 5 6 6 2 2 5 7 7 7 8 8 13 17 11 9 10 6 10 13 14 16 17 18 18 19 19 19 20 20 20 20 22 23 25 26 28 29 29 28 27 28 29 31 32 33 33 31 30 30 30 29 29 29 29 29 29 28 27 25 24 23 22 22 21 21 20 19 19 18 17 15 16 17 18 18 17 15 15 13 10 10 10 9 8
1 4 7 7 3 4 7 6 6 4 4 4 4 5 5 4 2 3 4 7 9 7 7 10 13 15 13 9 11 10 7 9 12 15 18 19 20 21 21 22 21 20 19 20 22 22 23 25 27 29 30 30 29 29 29 30 32 32 32 32 31 31 31 31 31 30 30 31 30 29 28 27 25 24 23 23 22 22 22 21 21 20 19 18 18 20 21 21 20 18 18 14 10 11 10 9 9
3 4 5 7 6 5 5 5 5 4 4 4 3 3 3 4 6 5 5 11 14 9 7 10 12 15 16 10 8 9 9 9 9 13 18 20 20 22 22 22 21 20 20 21 22 22 22 23 25 28 30 31 30 29 30 30 31 32 31 31 31 32 32 32 32 32 32 32 32 31 30 28 27 25 24 24 24 24 23 23 22 21 21 20 21 22 23 24 22 20 18 14 11 11 11 10 9
6 5 5 6 6 5 6 5 6 5 5 6 4 3 3 6 6 3 6 14 16 13 9 10 13 16 16 12 9 8 9 11 13 16 17 19 21 23 22 21 20 20 20 20 21 22 23 23 24 26 28 31 32 31 31 31 32 32 31 31 31 31 31 33 34 34 34 33 33 32 31 29 28 27 26 26 26 25 25 24 23 22 21 22 23 24 25 25 24 22 19 16 14 13 12 11 10
4 4 4 3 4 5 7 6 7 8 7 6 5 6 7 9 5 3 11 17 17 15 10 9 12 14 13 12 11 10 9 10 13 18 18 18 20 20 19 19 18 17 19 20 21 23 24 23 23 25 26 28 31 32 31 32 32 32 32 32 31 31 31 32 32 33 34 34 34 33 32 31 30 29 28 28 27 27 26 24 23 23 22 23 25 25 26 26 26 23 21 18 16 16 15 14 13
3 2 3 3 5 6 7 7 9 9 6 3 4 9 10 7 3 5 13 16 15 12 9 9 9 10 11 11 11 8 7 9 11 15 19 19 16 16 17 17 17 18 19 20 20 22 23 23 23 24 24 26 29 32 32 32 32 32 33 32 31 31 31 31 31 31 33 34 35 34 33 32 31 30 30 29 29 28 27 25 24 23 23 23 26 27 27 27 26 24 22 19 18 18 18 16 15
3 5 5 5 6 7 6 9 12 10 7 6 6 12 12 3 1 5 10 12 11 9 9 10 7 9 10 8 8 6 5 8 9 11 14 16 13 7 7 9 8 11 14 17 18 19 20 22 23 23 23 24 26 29 32 32 31 31 32 32 31 30 29 29 29 30 31 32 33 33 33 33 32 31 30 30 30 30 28 27 25 24 24 24 27 28 27 27 26 24 22 20 19 19 19 17 16
3 5 7 9 7 9 10 11 13 6 4 8 9 10 11 1 4 9 13 12 9 9 11 12 9 9 8 6 7 6 6 11 19 20 17 18 20 19 22 23 18 13 11 9 13 15 16 18 20 22 22 23 25 27 30 31 31 31 31 31 30 29 27 27 27 29 29 30 31 31 33 33 33 32 31 31 31 31 30 28 26 25 25 25 27 28 27 26 25 23 22 20 19 19 20 19 17
4 3 5 10 7 9 13 11 10 5 3 5 8 3 8 4 7 12 12 10 8 9 10 10 10 9 5 5 6 6 10 18 23 21 18 19 22 25 26 26 24 21 18 14 9 9 12 15 16 19 21 22 24 25 27 29 30 30 29 29 29 29 28 27 26 27 28 29 29 29 30 33 33 33 32 32 32 31 30 28 26 26 25 25 26 27 26 25 25 23 22 20 19 20 21 20 18
5 2 1 6 6 7 11 7 6 4 3 5 9 1 6 8 10 11 9 6 6 9 10 10 10 7 5 5 5 9 12 16 18 19 21 22 24 26 27 26 26 24 21 18 12 7 6 9 11 14 18 20 22 23 25 26 27 27 27 26 26 27 28 27 26 26 26 26 27 28 29 31 33 33 33 32 32 31 30 28 27 26 25 24 25 27 26 26 26 26 24 23 22 22 22 21 21
4 2 1 2 2 6 9 5 2 1 2 3 7 3 6 8 10 10 8 6 7 9 11 13 10 6 6 5 7 10 11 15 18 21 24 25 25 26 27 26 25 24 23 21 18 12 6 3 4 8 12 16 18 20 22 23 24 24 24 23 22 24 25 26 25 25 25 24 25 27 28 30 31 33 33 32 31 30 30 28 26 26 25 25 26 27 27 27 27 27 26 25 23 22 22 22 22
2 1 2 2 3 5 10 8 3 3 2 2 4 4 5 7 10 11 10 7 7 9 12 13 9 7 7 6 9 8 8 15 20 24 26 26 27 27 27 26 25 25 24 23 20 16 12 8 4 0 3 9 13 16 19 19 19 19 20 20 19 19 21 23 24 24 24 23 23 25 27 28 30 32 32 31 30 30 29 28 26 26 26 26 27 28 28 28 29 28 27 26 25 25 24 23 23
2 2 3 4 3 3 6 7 3 3 2 2 1 2 4 5 8 11 10 8 8 9 12 11 8 7 9 9 8 8 8 12 18 24 27 27 28 27 27 27 26 26 26 25 23 21 19 15 12 10 6 1 3 8 12 11 10 12 14 15 14 15 16 19 21 22 23 23 22 23 24 26 29 30 31 30 29 29 29 27 26 26 27 27 28 29 29 29 29 29 27 27 27 26 26 25 24
4 1 3 4 4 3 3 6 4 4 4 2 3 3 6 7 7 9 11 12 11 10 11 10 6 7 9 8 9 9 10 11 13 19 25 27 29 29 28 28 27 27 27 28 27 25 24 22 19 16 13 10 6 1 4 4 4 5 7 8 8 9 10 13 16 17 19 21 21 20 21 23 26 28 29 29 28 28 28 27 26 27 28 29 29 30 30 29 29 28 28 27 27 27 27 27 26
4 4 3 4 4 3 4 5 3 1 0 3 4 6 8 9 9 10 12 12 10 10 9 7 5 9 9 8 10 9 11 12 12 18 24 27 29 29 29 29 29 28 28 29 29 28 26 24 22 21 18 15 12 7 3 2 2 2 3 3 4 4 5 7 9 12 14 16 18 18 19 20 22 25 27 27 27 27 27 26 27 28 30 31 31 31 30 30 29 29 29 28 28 28 27 27 26
7 7 4 4 4 5 6 6 4 2 3 5 7 7 7 8 9 10 13 10 6 8 6 5 7 9 8 9 9 9 11 11 12 19 25 28 29 29 28 29 29 29 30 30 31 30 28 26 25 25 23 18 15 12 8 5 3 2 2 1 0 1 2 4 5 6 8 10 12 14 16 17 19 22 24 26 27 27 27 27 28 29 31 32 32 32 32 32 31 31 30 30 29 28 27 26 25
6 6 5 5 5 5 6 6 6 2 1 6 7 4 5 6 8 11 12 7 6 5 5 8 8 8 8 9 9 10 11 9 13 21 26 28 28 27 28 29 30 30 32 32 32 31 30 27 27 27 25 22 20 18 15 12 10 8 6 5 4 3 2 2 2 2 3 4 6 8 10 12 15 18 21 24 26 27 27 28 29 30 31 33 33 34 34 33 33 32 31 30 30 30 28 26 27
6 6 5 5 5 5 6 6 7 2 0 6 4 4 6 7 9 14 9 6 6 3 8 8 8 9 7 9 10 9 9 8 13 19 23 26 26 26 28 29 30 30 31 32 32 31 29 28 27 26 24 23 23 21 18 17 16 13 10 9 6 3 3 4 3 3 4 4 4 4 5 6 8 12 16 21 24 26 27 28 29 30 31 32 33 33 33 32 32 32 31 30 29 31 30 29 30
6 5 3 4 4 3 5 5 5 3 1 5 6 5 7 8 11 13 6 7 5 6 9 7 8 9 8 9 9 8 9 9 11 14 19 23 24 25 27 28 28 28 29 31 31 31 30 29 28 26 25 24 23 21 18 17 16 14 12 11 10 8 7 4 2 2 4 5 5 5 5 5 6 8 11 16 21 23 25 26 28 29 30 31 32 32 32 32 32 33 33 32 30 29 29 29 33
4 4 3 5 4 2 4 5 5 4 2 3 4 6 5 7 9 6 7 7 8 9 10 10 8 10 10 9 8 9 10 10 11 11 14 19 23 25 27 28 27 27 29 30 30 30 31 30 29 27 26 25 24 21 19 16 14 13 12 11 11 11 10 7 5 4 3 3 5 6 7 8 8 9 9 11 15 19 21 23 25 26 27 28 30 31 32 33 33 33 33 34 32 28 26 28 34
3 3 4 4 4 3 5 4 5 5 4 1 2 5 4 5 8 1 5 4 8 9 9 10 8 8 9 9 9 9 9 9 9 10 11 15 20 23 26 27 27 28 29 30 30 30 30 30 29 28 26 25 23 21 19 16 15 14 12 12 12 13 13 12 10 9 7 6 5 5 6 7 8 9 9 10 12 15 18 20 22 23 24 26 27 29 31 32 32 33 34 34 34 31 29 28 32
4 3 5 6 6 5 4 3 4 5 5 3 4 4 5 5 7 4 4 4 6 7 7 9 7 7 8 8 9 8 8 8 8 9 10 13 17 20 25 28 28 28 27 28 30 31 32 31 29 28 27 25 23 21 18 17 17 17 16 16 16 16 16 16 13 10 9 8 6 6 6 7 7 7 8 10 11 12 14 17 19 21 22 24 25 27 29 30 31 32 33 34 35 35 32 27 29
3 4 4 5 5 3 1 3 3 1 2 3 3 1 6 4 6 7 5 7 6 6 7 7 6 6 7 8 7 6 7 7 8 9 10 12 15 18 22 26 26 26 25 26 30 33 34 33 32 30 28 26 23 21 19 18 18 18 18 18 18 17 17 16 14 12 11 9 7 6 7 7 7 7 7 8 9 11 12 14 16 18 20 21 21 23 26 29 30 31 32 34 35 35 34 29 28
3 5 4 5 5 3 2 3 1 3 2 5 1 4 5 4 6 7 6 9 5 5 6 5 6 6 7 7 7 7 7 6 7 8 8 11 14 16 20 24 26 25 24 26 30 32 34 34 34 32 31 29 25 22 20 20 19 18 17 16 16 17 16 15 13 12 11 10 8 7 7 7 7 8 8 7 7 8 9 11 13 15 17 19 19 20 22 25 28 30 30 32 34 35 36 33 30
5 5 5 5 4 4 3 4 1 2 2 5 5 4 3 5 5 2 7 7 4 5 6 5 6 6 7 7 7 7 6 6 6 7 8 11 13 16 19 23 25 24 23 25 28 31 32 33 34 34 33 32 29 26 24 22 20 19 18 17 17 16 15 14 12 11 11 10 10 9 9 8 8 8 8 8 9 8 8 8 10 12 14 16 18 19 20 21 24 28 29 30 32 34 35 35 33
4 3 3 3 2 2 2 4 2 1 2 4 7 4 3 5 5 1 5 4 5 5 5 5 5 6 6 6 6 6 6 6 6 7 10 12 14 17 21 24 24 22 21 24 27 30 32 32 33 33 33 31 31 29 28 26 24 22 21 20 19 18 16 14 13 13 13 11 10 11 11 11 10 8 8 8 9 10 10 9 9 10 11 13 15 17 19 20 21 24 26 28 29 31 34 35 34
3 4 4 5 5 3 3 2 3 3 2 6 8 7 6 3 5 3 3 3 8 9 6 6 6 6 7 6 5 5 5 5 5 6 10 13 16 19 21 22 20 20 22 25 27 29 30 31 31 31 30 29 30 29 28 28 27 26 25 23 23 22 20 18 18 18 18 16 15 13 11 10 10 11 9 7 8 9 10 11 10 10 10 11 12 14 16 19 20 22 23 25 27 28 30 33 35
4 5 4 4 4 4 5 4 4 2 4 7 6 6 7 4 5 3 3 4 6 11 10 11 9 7 6 5 5 4 4 5 5 5 7 11 14 17 19 19 20 22 24 25 26 27 28 29 28 29 28 27 27 28 28 28 27 27 26 25 25 24 24 23 22 22 21 20 19 17 14 12 11 11 11 11 10 10 9 10 11 12 12 11 12 13 14 16 18 20 22 24 26 27 28 29 32
5 4 5 3 3 3 2 2 0 2 5 6 3 3 4 6 5 1 5 7 4 8 8 10 10 8 7 5 5 4 4 4 5 5 5 7 10 14 17 19 20 22 23 23 24 25 26 27 27 27 26 25 25 26 27 27 27 26 25 25 25 24 24 23 23 22 21 21 20 20 19 18 17 16 15 15 15 14 12 10 9 10 12 13 13 13 15 16 17 19 21 23 24 26 27 28 30
4 4 4 4 1 1 2 3 1 3 5 5 3 1 1 5 3 4 5 5 6 10 11 10 9 9 7 6 4 4 4 4 5 5 4 6 11 15 16 17 18 19 19 20 21 23 24 25 26 26 25 24 25 26 26 27 26 26 25 24 24 23 23 22 22 21 21 21 21 21 21 20 20 20 19 18 17 16 14 12 10 9 9 11 13 14 15 16 18 19 20 22 23 25 26 27 28
4 5 5 5 4 3 4 3 3 3 4 5 4 1 2 3 1 4 4 5 7 10 10 9 9 7 6 5 4 4 4 4 4 4 5 8 12 14 14 15 15 15 17 18 20 22 24 25 25 25 25 24 24 25 25 26 26 25 24 24 23 23 23 22 21 21 21 21 22 21 21 21 21 20 20 19 18 18 16 14 12 11 10 10 12 13 15 16 17 19 20 22 23 24 25 27 28
2 3 4 2 4 5 2 3 4 3 3 4 3 2 2 3 2 3 4 7 8 8 8 9 8 6 5 5 4 4 4 3 4 4 5 9 12 12 11 11 12 14 17 18 20 22 24 24 23 23 23 22 23 23 23 24 24 24 24 24 23 23 23 23 22 22 22 22 23 23 22 22 22 21 21 21 20 19 19 17 16 14 13 13 13 14 15 16 17 18 19 21 22 23 25 27 28
0 3 2 4 4 5 1 4 2 1 3 4 2 3 2 2 2 2 4 7 7 6 6 7 6 5 5 4 4 3 3 3 3 4 4 7 8 7 8 9 11 14 17 18 20 21 22 22 22 21 21 20 21 21 21 21 21 22 23 23 23 23 23 23 23 23 23 22 23 24 23 23 23 23 22 22 21 20 19 19 18 17 16 16 15 15 15 15 16 18 19 20 21 22 24 26 27
3 2 4 3 1 3 2 1 2 3 5 4 3 6 4 2 2 1 4 5 5 4 5 6 5 5 5 4 5 4 4 4 3 4 4 5 5 5 6 8 10 12 13 14 16 17 18 19 19 19 19 18 18 18 18 18 19 20 21 21 21 22 22 22 22 22 22 23 24 24 24 25 25 24 23 22 22 21 21 20 19 19 18 17 16 16 16 16 16 18 19 20 21 21 23 26 26
3 3 2 1 1 1 1 1 2 4 5 3 5 7 5 4 4 4 5 6 7 6 5 6 6 6 6 5 5 5 4 3 3 3 3 4 4 4 5 6 7 9 10 11 12 12 13 14 14 15 15 15 15 14 15 15 15 16 16 17 18 19 19 20 21 22 23 24 26 26 26 26 26 26 26 25 24 24 23 22 21 21 20 19 18 17 16 16 16 17 18 20 21 22 24 25 25
3 2 2 1 3 3 2 2 2 3 4 4 5 5 4 4 4 7 9 9 10 8 6 6 7 7 6 5 5 4 4 4 4 4 4 3 3 3 4 5 6 7 7 8 8 7 8 9 10 11 10 11 12 12 12 12 12 11 11 12 12 14 16 17 19 20 21 23 25 26 27 28 28 28 29 28 28 27 27 26 24 23 22 22 21 19 18 18 18 18 19 20 20 21 24 27 26
2 2 2 1 1 1 2 2 2 3 3 4 5 5 4 3 1 5 9 9 9 9 8 7 6 6 6 6 5 5 4 5 4 4 4 3 2 2 3 4 4 5 4 5 5 5 5 5 6 7 9 10 11 12 11 10 11 10 9 10 10 12 14 16 17 18 18 20 22 23 26 27 27 28 29 30 30 30 30 30 28 27 26 25 23 22 21 20 19 19 20 20 21 21 23 25 27
4 2 3 3 2 0 2 3 2 3 3 3 4 5 4 3 2 2 6 8 8 9 9 7 7 8 8 6 6 6 5 4 4 4 4 4 3 2 1 1 1 2 3 3 4 4 3 3 4 5 7 9 9 11 11 10 10 10 10 10 10 10 13 15 16 17 17 18 20 21 23 24 25 26 28 29 30 30 31 32 32 32 30 29 27 25 24 23 22 22 22 21 22 23 24 25 26
Wind_Direction
319 307 351 4 343 335 326 59 66 322 77 34 297 105 276 277 122 56 57 70 47 264 203 210 314 102 213 193 195 200 202 194 185 146 206 225 144 166 172 170 186 188 186 184 186 187 185 187 186 181 177 176 175 174 176 178 177 181 182 183 183 181 178 175 171 167 166 163 161 158 155 151 149 153 152 154 157 160 162 155 152 155 151 145 143 136 131 121 118 128 132 113 121 107 85 84 87
326 315 6 354 327 343 304 87 79 331 51 25 305 115 258 340 48 81 114 124 181 219 199 208 338 327 311 251 184 144 249 221 180 150 186 156 136 168 174 174 184 189 191 186 188 187 186 188 188 186 182 179 177 177 178 179 180 183 186 189 189 182 179 176 171 171 171 169 169 164 166 164 158 158 158 161 162 165 158 154 163 164 157 150 144 138 126 116 121 127 76 14 169 129 89 67 34
356 352 7 357 326 26 2 43 85 71 62 83 287 280 19 44 78 147 162 164 190 188 136 89 4 255 38 14 90 133 256 259 141 104 112 150 150 174 179 180 183 192 194 189 190 188 188 189 190 189 186 184 180 180 182 182 183 185 188 191 192 182 177 178 175 176 176 175 175 172 173 170 166 169 171 169 165 163 149 154 170 164 159 156 141 131 121 114 121 121 42 5 155 139 110 40 324
10 10 355 5 20 25 49 45 128 114 70 158 282 298 9 102 127 154 188 191 184 135 84 90 24 242 113 331 252 163 252 293 154 134 141 180 177 178 178 176 182 194 195 192 191 190 190 189 192 191 189 188 184 184 184 185 187 189 190 189 188 180 175 179 179 179 180 180 178 175 175 173 174 179 179 170 164 161 155 164 170 163 157 149 132 122 119 110 109 103 34 51 140 156 148 335 312
5 6 337 3 62 19 76 68 85 90 270 191 137 293 296 117 73 15 270 211 170 115 122 112 2 290 90 239 220 160 231 283 201 137 148 183 174 165 168 171 180 193 197 191 191 193 193 190 193 193 191 190 187 188 188 187 187 188 189 187 185 181 177 180 182 182 182 182 180 177 175 180 185 186 179 166 164 166 165 168 166 163 151 138 129 125 118 102 95 71 44 60 226 229 256 322 314
2 3 337 4 104 149 84 58 332 300 242 169 139 263 238 93 82 35 6 21 26 77 116 98 131 312 320 260 200 191 214 147 156 139 153 171 162 156 160 170 177 191 198 191 193 196 195 193 193 195 194 191 190 191 190 190 189 188 188 187 187 183 181 183 185 183 182 182 183 182 181 188 189 185 176 167 171 176 171 164 162 157 149 145 138 133 123 105 87 56 32 328 278 250 278 320 319
352 355 4 49 346 61 86 171 231 241 248 166 147 209 134 93 98 55 360 359 8 16 50 345 119 65 275 276 302 260 230 150 159 150 157 160 161 153 157 170 175 187 197 195 195 198 199 197 195 195 196 194 193 193 192 192 191 189 189 189 189 188 187 186 186 183 182 183 184 187 189 192 191 183 174 175 182 184 176 168 173 166 160 167 157 146 140 127 100 46 339 335 270 242 286 324 323
337 342 55 79 14 22 79 254 244 213 254 207 153 147 121 126 102 65 324 328 333 286 28 278 89 73 280 323 305 276 8 141 154 153 152 153 165 153 159 172 175 184 194 199 198 198 201 201 199 197 197 197 195 195 195 194 193 191 192 192 191 193 192 189 187 185 185 184 186 192 196 194 193 184 175 181 187 185 180 178 191 198 194 190 179 175 169 170 238 246 258 281 239 254 311 332 329
358 152 32 75 51 9 355 311 289 241 256 255 117 89 100 119 107 93 298 331 309 192 194 212 120 112 284 336 274 277 342 151 156 159 154 157 167 156 165 175 179 184 190 198 202 203 202 203 204 201 199 199 198 198 197 195 195 195 196 196 197 199 197 195 191 188 188 187 190 196 198 195 194 187 181 186 187 184 183 183 194 209 215 206 192 186 188 206 237 231 209 224 242 279 324 342 17
16 97 66 76 62 12 337 308 291 294 288 270 76 98 111 99 91 101 227 300 282 160 250 199 115 173 267 312 268 287 248 176 166 167 163 165 165 164 170 174 182 185 186 193 203 207 205 204 205 205 203 200 200 200 200 198 197 199 200 200 203 204 202 202 197 194 190 189 196 200 200 196 194 188 185 191 191 189 191 196 204 215 226 220 208 205 213 210 209 207 194 227 249 287 330 29 102
21 346 84 76 42 14 287 285 285 285 289 316 25 347 122 106 66 33 8 321 306 336 293 151 68 241 250 279 264 284 185 181 185 181 171 170 165 167 169 167 177 189 191 192 200 206 207 206 205 208 207 204 204 203 202 201 200 202 203 203 205 206 206 206 204 201 194 194 201 203 202 197 192 189 190 197 197 199 210 217 223 230 229 218 214 223 227 210 201 202 195 225 250 285 328 120 123
53 330 62 80 106 213 230 271 287 292 318 2 11 295 110 101 77 330 4 346 315 346 317 197 216 205 156 273 264 226 165 180 209 194 173 173 166 161 167 169 174 191 199 196 199 204 208 208 204 206 209 209 207 206 205 203 203 203 203 204 205 207 209 208 208 208 201 200 205 205 203 197 192 192 197 203 200 210 226 230 233 237 224 203 204 217 213 204 200 200 208 219 242 274 186 139 136
68 342 75 93 211 234 273 277 293 326 342 349 194 271 84 88 150 219 90 335 315 349 300 210 136 83 250 263 283 284 176 188 202 183 174 174 168 160 167 175 179 186 195 202 203 205 209 208 205 204 207 210 210 209 208 206 206 205 204 205 205 207 210 211 211 212 207 205 210 208 204 198 194 197 203 205 206 218 228 229 231 235 233 206 191 199 196 197 196 197 214 221 242 255 175 150 144
41 141 99 223 295 344 277 284 313 23 311 265 221 265 72 113 204 171 106 326 299 273 232 223 155 73 274 278 311 298 210 192 183 175 176 174 173 171 179 183 185 186 190 203 206 208 210 208 208 206 206 208 210 212 212 210 209 208 207 207 208 210 211 213 214 213 210 210 213 211 205 199 197 201 205 206 211 220 221 224 230 232 239 209 182 189 190 192 191 203 219 225 240 222 175 157 150
122 56 95 90 332 342 247 233 202 125 266 244 208 199 105 260 183 120 159 233 271 230 204 274 150 140 248 242 270 267 210 195 188 181 178 178 178 177 191 193 191 191 192 201 208 212 212 211 210 209 209 209 211 213 214 213 212 212 210 210 212 213 213 214 215 213 211 211 214 210 204 202 203 204 207 212 216 220 221 228 236 237 235 203 183 191 190 192 191 209 224 225 227 204 175 163 156
103 93 68 40 314 337 253 236 117 77 275 240 241 124 82 302 152 123 223 178 267 276 352 275 198 209 235 228 249 254 219 196 192 187 182 182 187 183 194 200 199 197 198 202 207 213 214 214 213 212 212 212 214 214 215 216 214 213 212 213 215 216 215 214 213 212 211 211 213 209 204 205 206 206 211 217 221 225 229 237 244 244 232 203 191 194 193 195 194 207 215 215 217 195 177 170 162
59 75 62 348 259 227 236 267 37 38 265 267 305 51 94 309 328 70 276 113 275 290 294 251 237 243 233 250 261 260 216 192 189 186 185 187 193 190 196 203 203 203 205 207 210 213 215 217 218 216 216 216 216 216 216 217 216 215 214 215 217 218 216 215 212 210 211 211 211 208 206 208 207 208 213 218 223 230 236 241 245 247 238 215 200 196 197 197 194 198 193 200 211 189 177 173 170
57 79 100 267 231 214 217 253 310 226 251 282 288 73 92 333 319 341 327 327 294 296 292 273 274 263 251 259 268 267 215 197 192 189 191 193 195 196 204 208 209 212 213 214 216 215 215 218 220 220 219 218 218 218 218 217 217 215 214 215 216 218 216 215 212 210 211 211 211 209 209 209 207 210 215 220 226 232 237 240 243 245 244 229 209 195 196 195 194 198 187 193 202 185 182 182 182
99 125 145 229 215 230 263 299 327 332 286 305 338 24 45 334 303 355 301 287 293 297 288 296 295 276 270 272 277 260 216 205 200 200 201 202 202 205 213 216 216 221 221 221 224 222 218 218 219 222 223 221 218 218 219 218 217 215 214 215 215 216 215 214 213 212 211 211 212 210 210 210 209 213 218 224 229 232 236 238 242 244 245 239 216 196 195 195 196 199 189 192 195 187 190 189 187
172 135 171 240 225 260 294 304 322 321 301 355 350 356 351 300 301 348 280 283 285 265 263 287 290 281 280 284 293 239 208 209 210 211 215 218 219 218 221 222 223 229 233 234 234 229 223 219 219 221 225 224 220 218 219 218 217 216 215 215 215 214 214 214 214 214 212 212 213 212 211 212 214 217 222 227 229 230 232 233 238 240 241 239 218 198 195 198 199 197 193 195 193 192 195 194 193
179 145 188 233 225 271 281 291 312 324 31 58 327 336 323 295 318 297 284 296 282 252 235 242 265 277 276 273 294 273 208 209 217 221 228 231 230 229 232 234 238 245 247 244 239 233 229 225 222 221 223 224 222 219 218 218 218 217 216 217 217 215 214 213 214 215 214 213 213 213 213 216 218 221 224 225 227 228 229 230 234 236 236 233 216 200 195 201 201 195 198 198 191 199 201 197 198
181 200 206 226 230 267 272 290 309 320 9 11 338 324 293 298 332 272 280 283 266 249 229 235 246 265 273 270 287 289 253 226 219 223 231 236 236 234 238 241 245 250 248 242 240 239 234 231 228 223 222 222 223 222 219 219 218 217 217 217 217 217 216 214 215 216 215 214 214 215 216 218 221 222 224 224 226 228 229 230 232 233 232 228 216 203 199 205 205 200 203 198 189 204 207 202 199
211 258 229 230 230 244 268 295 302 305 333 319 298 282 277 323 305 254 243 257 262 258 235 245 253 261 274 279 277 278 275 264 241 231 232 236 238 237 240 243 244 246 245 246 246 243 236 233 231 227 223 221 222 223 222 219 218 218 218 217 217 217 217 216 217 217 216 217 217 217 218 219 221 221 223 225 227 229 230 231 231 231 229 225 216 207 203 208 210 208 208 201 196 206 210 211 206
201 263 261 247 245 252 277 300 306 300 281 268 273 314 303 285 283 276 258 261 268 271 251 250 263 269 278 282 271 260 260 267 268 261 250 243 244 245 246 248 252 249 244 248 250 245 239 236 232 228 225 223 222 222 222 220 218 218 218 217 218 218 218 218 218 219 219 219 220 221 221 221 221 221 223 226 228 229 229 229 227 227 228 223 214 209 207 209 213 214 213 207 204 207 211 215 215
212 248 258 281 289 283 298 305 302 296 280 275 295 300 265 246 267 303 271 271 275 275 270 259 266 274 278 277 274 266 259 262 268 272 270 261 254 252 250 250 253 249 244 249 249 245 243 239 233 230 228 226 224 221 221 221 219 218 218 219 220 220 220 221 221 221 222 222 223 224 224 224 222 221 222 225 227 228 228 227 224 226 228 220 212 211 210 211 214 216 217 212 209 210 211 215 217
276 306 295 324 306 292 305 299 285 284 275 258 279 279 262 248 286 283 260 263 271 282 290 275 271 276 272 272 272 270 271 266 268 276 280 280 270 252 250 252 248 245 249 251 247 247 247 240 233 231 232 231 227 222 221 221 220 219 219 220 220 220 221 223 223 224 225 225 225 226 227 226 224 223 222 224 225 226 225 224 225 226 227 221 213 213 213 214 216 217 217 212 210 212 214 217 217
314 353 324 303 298 301 298 287 280 278 271 242 233 265 269 240 169 272 261 255 271 298 299 284 281 274 268 274 285 296 299 299 324 337 328 337 348 328 325 335 301 274 269 258 251 252 248 240 235 234 233 233 229 225 223 222 221 220 220 220 220 220 221 222 223 225 227 227 227 226 226 226 226 226 224 224 223 223 223 224 226 226 226 222 217 215 215 217 219 220 219 214 212 213 216 219 218
330 359 335 307 316 314 288 279 278 271 268 232 197 252 281 261 169 247 262 268 291 305 293 292 291 278 278 296 308 322 345 13 33 37 29 22 25 28 31 25 19 11 353 315 282 269 255 246 241 237 233 232 230 227 226 224 223 222 221 221 221 222 222 223 224 225 227 228 228 227 226 226 226 226 225 224 222 222 223 224 226 225 225 223 218 216 216 218 221 222 222 220 218 216 216 219 219
323 6 339 303 333 313 280 274 266 234 231 205 157 251 292 265 226 242 258 279 301 298 290 293 287 285 315 341 331 3 30 39 43 40 34 33 31 32 32 28 30 32 28 18 343 299 278 261 247 242 235 231 230 230 229 227 226 224 224 224 224 225 225 226 227 227 228 228 229 228 227 226 225 225 224 223 222 222 223 224 226 226 225 222 218 216 215 218 219 219 220 220 219 216 214 216 216
316 359 90 294 346 306 274 274 267 241 219 168 138 201 274 254 254 257 267 282 299 303 299 293 290 304 345 346 6 42 44 41 39 33 31 33 31 31 32 32 34 34 31 33 30 14 311 276 256 246 235 231 232 232 232 230 229 227 226 227 226 227 226 227 228 228 229 229 230 229 228 226 225 225 224 223 221 222 223 223 226 227 225 222 219 216 215 217 217 215 215 216 216 215 214 213 214
298 336 129 279 328 281 285 295 297 324 288 147 139 210 258 259 274 281 282 289 307 312 298 290 299 325 332 344 45 58 46 40 37 31 30 31 31 31 33 34 37 37 36 38 40 46 36 340 279 250 238 234 233 231 232 232 231 229 228 229 229 229 228 228 229 229 229 229 229 227 226 226 225 225 225 223 222 222 223 224 226 226 224 221 219 218 217 216 216 215 214 214 213 214 214 213 215
286 294 301 287 187 263 300 298 262 189 275 29 132 218 265 266 275 281 284 297 312 302 286 291 313 343 360 32 61 63 46 42 37 31 28 29 29 29 31 35 39 41 42 43 47 57 64 58 47 355 232 232 232 231 231 231 233 232 231 233 233 232 231 230 230 229 229 229 228 227 225 225 224 224 224 224 223 222 224 225 226 225 223 221 219 219 218 217 216 215 216 217 214 211 210 211 214
305 192 243 263 217 260 304 303 300 140 123 17 202 244 279 270 272 280 290 302 302 287 283 298 324 8 48 63 61 56 45 38 33 28 25 27 29 28 30 34 40 46 48 50 54 62 68 67 65 64 66 84 230 227 224 225 230 231 231 234 236 235 233 231 230 230 230 230 229 228 226 224 223 224 223 224 225 224 226 227 226 223 222 221 220 219 219 219 218 216 216 218 218 214 209 208 210
302 244 219 246 236 235 282 298 324 74 105 244 253 239 247 263 281 290 294 292 290 286 291 310 341 53 74 72 62 56 47 41 31 24 23 27 30 29 30 33 39 47 52 55 60 65 68 65 62 61 58 51 46 84 202 199 189 203 214 221 227 228 227 228 228 229 230 230 231 230 229 226 224 224 224 224 225 226 228 228 227 223 222 221 220 219 220 220 221 220 217 216 218 218 213 209 209
241 247 244 265 255 247 269 273 288 14 344 254 260 254 253 268 281 283 277 272 279 289 302 333 39 81 81 69 67 61 53 51 36 27 28 31 31 29 31 33 37 44 49 54 60 65 67 65 63 61 57 54 53 58 87 136 127 147 168 183 202 208 213 218 220 223 226 229 232 233 233 230 227 225 225 226 226 227 227 228 228 225 224 223 221 220 220 220 220 222 221 217 216 218 220 217 212
222 239 242 252 261 267 262 258 264 292 303 272 257 256 259 265 272 274 272 275 299 305 330 47 79 84 79 72 69 61 58 54 39 35 35 35 34 32 32 33 37 43 47 51 57 61 62 63 64 61 59 61 64 62 59 50 33 27 29 26 196 165 197 206 209 216 221 228 232 233 234 232 231 230 230 229 229 229 229 229 229 227 226 224 222 221 221 222 222 222 222 219 215 214 218 219 214
235 253 259 251 253 267 265 266 273 284 319 261 250 265 280 274 276 272 275 310 336 331 57 83 86 77 74 74 67 61 60 51 43 41 38 38 36 35 35 35 38 41 45 49 53 55 57 60 61 59 59 62 64 61 58 53 45 36 26 15 2 352 333 286 255 247 242 241 240 238 238 235 233 233 233 234 233 233 233 232 230 228 227 225 226 226 226 226 226 225 223 220 218 214 213 213 211
241 237 243 253 248 253 261 267 277 294 154 261 294 353 301 286 282 281 296 8 356 38 93 90 83 79 71 69 65 61 61 49 44 41 37 36 35 36 38 38 38 39 41 45 49 52 55 58 58 57 59 61 61 61 61 57 53 52 51 45 42 39 19 350 330 317 307 307 301 286 270 256 244 237 237 238 238 237 236 233 231 230 228 227 228 229 230 229 226 226 223 219 219 218 217 213 205
254 247 239 261 268 288 290 292 310 356 84 272 319 332 294 284 279 293 348 69 55 53 82 82 80 82 68 64 63 59 59 47 42 39 34 33 32 35 39 39 39 41 44 47 50 52 54 55 56 57 58 59 59 60 60 56 55 59 59 56 63 76 70 49 22 340 307 310 315 314 309 296 278 257 247 245 245 243 240 236 234 233 232 231 229 228 228 228 227 226 224 221 218 217 219 215 207
267 262 262 272 292 346 289 299 334 344 274 256 300 299 292 284 280 334 41 88 89 71 76 75 76 83 79 73 66 59 59 50 44 41 33 31 32 34 37 37 37 40 44 48 50 52 54 55 57 58 58 58 57 57 57 57 59 65 66 64 67 71 68 65 67 58 28 347 332 324 317 309 301 290 275 262 256 254 250 246 241 238 236 235 233 231 229 229 228 227 226 225 219 213 214 215 212
284 222 209 250 278 245 234 280 331 335 317 323 14 326 300 256 257 353 68 83 86 85 81 76 71 78 83 78 68 62 60 56 49 44 36 32 31 33 37 38 37 37 40 45 49 52 55 58 60 62 62 61 58 57 57 57 59 63 69 72 72 69 62 59 63 62 57 46 27 7 349 332 320 308 295 283 272 266 263 258 253 249 245 242 239 235 234 235 233 230 229 227 222 217 215 216 213
306 242 210 221 235 237 242 331 8 18 340 323 49 360 294 254 252 231 149 102 79 80 78 80 76 71 76 70 65 62 61 62 56 48 45 42 38 37 40 40 38 36 38 44 50 54 56 58 61 64 64 63 61 59 59 61 61 58 59 60 57 55 51 47 51 57 58 53 45 31 16 360 346 334 316 301 289 281 276 272 268 264 258 253 248 243 240 239 238 236 233 230 227 225 221 219 216
289 251 199 180 161 146 105 46 35 60 261 290 70 79 275 271 258 247 157 115 99 89 79 82 80 70 73 71 66 63 56 59 64 55 45 45 46 43 43 42 39 36 38 46 53 56 57 57 59 61 62 62 60 59 60 62 63 60 58 56 51 47 43 41 45 53 54 47 38 27 17 9 1 357 345 326 311 299 291 285 280 276 271 266 260 253 247 244 244 243 240 236 233 231 226 222 221
231 236 145 112 105 115 157 117 104 228 245 319 333 182 258 277 253 242 137 114 110 102 92 89 89 82 83 80 72 68 59 50 61 64 50 44 46 48 50 48 46 41 39 47 54 57 59 58 59 60 61 61 59 59 60 60 60 59 57 57 53 47 42 39 41 47 53 52 46 30 14 5 359 359 0 356 344 325 310 300 293 287 282 278 274 266 257 252 251 250 247 242 238 235 230 227 226
231 218 146 118 134 170 174 134 176 261 10 318 268 188 233 273 266 220 123 128 156 144 128 113 102 92 87 84 77 71 67 53 51 61 56 45 43 48 54 55 53 48 43 48 56 60 62 62 61 61 59 59 59 60 61 60 60 59 57 55 51 47 43 39 36 36 43 52 55 45 29 15 359 345 344 351 354 350 338 320 308 299 292 287 283 279 272 263 257 254 252 248 243 239 236 234 232
221 180 129 67 90 145 119 127 141 26 27 256 238 186 197 272 292 139 128 158 184 161 139 126 112 99 87 78 75 68 64 59 49 56 56 50 47 49 55 59 57 53 48 51 57 61 63 63 63 62 58 57 59 61 62 60 59 58 55 52 49 45 41 37 33 29 27 32 43 44 37 31 24 8 348 336 337 339 334 329 325 314 305 298 290 285 281 275 268 262 258 255 251 247 242 239 237
126 89 51 18 7 24 54 93 94 67 293 248 228 202 186 268 295 208 182 208 171 154 146 141 117 97 90 76 74 70 65 64 54 57 57 53 53 52 55 57 55 54 53 53 55 59 62 63 63 63 59 58 59 60 61 61 60 59 56 54 51 47 44 41 37 30 24 22 24 27 26 25 25 24 17 0 343 333 320 313 314 315 314 308 300 294 288 283 278 273 269 264 260 255 251 246 242
93 75 58 26 340 7 31 7 43 105 249 259 241 203 176 214 264 242 302 312 153 149 156 150 128 106 98 83 77 74 70 69 58 54 52 50 52 50 50 49 47 49 51 52 53 57 60 62 63 63 60 58 59 59 60 60 60 60 58 56 54 50 48 47 43 38 32 27 23 22 23 21 16 12 8 3 356 348 335 319 306 304 306 308 308 305 299 294 288 282 278 273 269 265 260 254 249
79 84 79 65 344 3 13 314 8 198 247 254 222 136 162 221 250 346 354 351 62 107 124 130 121 112 103 91 81 71 63 64 60 54 50 47 45 42 41 40 41 45 47 49 52 56 59 61 63 62 58 57 58 58 59 59 58 58 57 56 55 52 49 47 45 43 40 35 31 27 27 26 22 16 7 360 352 346 342 337 325 310 303 304 305 306 305 302 297 291 285 280 276 273 269 263 257
128 136 130 122 102 26 266 258 253 260 266 254 228 103 243 251 294 25 23 13 59 91 101 108 111 112 111 107 97 73 57 52 51 51 49 47 43 40 40 39 41 44 46 49 51 54 59 60 62 62 59 58 59 58 58 58 57 56 56 56 55 53 50 48 46 45 43 41 39 36 33 31 28 24 16 7 358 349 341 337 334 326 313 306 303 303 305 304 301 298 292 286 282 277 274 271 266
179 165 142 144 156 177 223 232 222 248 271 276 277 284 213 214 342 26 40 47 64 84 96 100 99 105 109 104 92 75 62 46 42 47 47 48 48 45 44 43 44 47 49 51 51 54 57 58 58 59 57 56 57 58 58 57 57 55 55 54 54 52 50 47 46 43 42 41 41 40 38 35 33 29 22 15 7 358 350 342 334 329 323 313 307 305 304 302 301 300 296 292 287 283 279 274 271
233 147 118 164 192 178 215 248 210 202 274 284 271 253 204 146 86 55 65 67 70 75 85 92 94 100 103 100 97 90 79 62 55 57 51 52 56 55 52 53 54 55 55 54 52 53 55 55 55 56 55 55 55 55 56 56 56 55 53 52 51 49 47 44 43 40 38 38 37 37 36 35 33 31 27 22 16 10 2 353 344 335 327 319 313 311 308 305 303 301 298 295 290 287 284 280 276
211 111 171 224 190 147 158 285 263 176 251 252 226 263 301 83 84 68 70 73 80 84 91 100 108 109 109 120 132 129 123 115 92 79 72 67 67 68 66 63 61 58 57 56 55 54 54 52 52 52 51 52 51 51 50 50 50 49 47 46 45 43 42 39 37 35 34 34 33 32 31 31 30 29 26 22 19 16 11 5 358 349 341 331 323 317 314 312 309 305 301 298 294 291 288 285 281
135 177 223 236 84 97 112 258 279 256 248 249 241 254 258 224 234 130 101 108 116 126 123 119 124 131 142 159 164 165 159 139 111 99 104 102 95 85 78 71 65 63 59 58 57 53 51 50 49 48 47 47 46 46 46 44 43 40 37 35 34 33 32 29 27 25 25 25 25 23 22 23 23 22 21 20 17 14 12 9 5 360 354 346 336 328 320 315 312 310 306 302 299 296 292 288 285
128 194 225 90 85 282 284 168 212 241 250 269 262 251 246 235 215 164 169 174 161 160 150 144 158 167 172 175 177 182 165 146 137 138 147 139 115 81 71 70 66 65 60 58 57 53 50 49 48 48 47 47 46 46 48 46 43 40 33 29 27 24 22 19 16 14 14 15 14 12 11 11 11 11 10 10 10 9 7 6 4 1 357 352 347 341 332 323 315 310 308 306 304 301 296 291 288
38 35 1 39 167 192 221 195 179 215 243 266 265 254 252 252 207 175 191 187 167 163 163 174 187 185 186 184 181 185 175 174 177 177 184 159 103 57 58 64 62 64 59 55 56 52 50 47 48 50 47 48 48 44 48 48 44 42 35 28 24 19 17 14 10 8 6 5 4 2 1 0 0 0 0 359 359 359 359 358 358 357 354 353 350 347 342 334 325 315 309 306 304 303 299 295 291
54 32 356 287 240 211 253 248 166 166 218 245 255 253 248 263 236 182 188 176 161 164 168 182 195 195 203 200 186 187 188 190 193 195 193 168 95 58 73 69 61 60 53 50 49 44 47 45 44 44 40 44 46 41 45 47 42 41 34 28 23 16 12 8 6 4 359 356 356 356 355 353 352 351 351 350 349 349 349 348 347 348 348 348 347 346 344 338 331 324 317 310 306 303 300 297 295
145 156 198 200 204 200 274 272 207 165 195 202 230 262 262 273 303 160 156 153 158 168 167 173 194 201 205 203 191 189 189 190 195 188 178 174 190 208 185 29 16 36 40 51 56 50 56 51 36 29 31 38 40 37 41 43 39 38 31 27 23 11 5 2 1 0 354 348 347 347 347 347 346 345 345 344 342 341 340 339 338 337 338 339 340 341 341 338 334 329 324 318 313 308 303 299 297
Height
807 807 806 806 805 805 807 807 824 828 829 842 835 831 825 815 815 817 819 817 817 815 810 810 809 809 812 814 815 814 814 816 817 822 825 810 800 803 803 804 805 805 807 808 810 811 812 814 815 817 818 819 821 822 824 825 827 828 829 830 831 832 833 834 835 836 837 838 839 840 841 841 842 843 843 844 844 845 845 846 847 847 847 848 848 849 849 849 850 850 850 850 850 850 851 851 852
807 807 806 806 805 808 811 810 830 837 836 845 834 829 823 814 817 819 819 817 816 812 808 808 808 808 808 809 810 813 811 806 804 806 807 802 802 803 803 804 804 805 807 808 809 810 811 812 814 815 817 819 820 821 823 824 826 827 828 829 830 832 833 834 835 836 837 838 839 840 840 841 842 843 843 844 844 845 846 846 847 847 847 848 848 848 849 850 850 850 849 849 850 850 851 851 851
808 807 806 807 805 808 812 815 833 843 843 847 836 825 819 819 820 818 815 812 810 807 807 808 809 808 808 812 811 814 811 801 799 801 802 802 802 802 803 804 803 805 806 807 808 809 811 812 813 814 815 817 819 820 822 823 824 825 827 828 830 831 832 833 834 836 836 838 838 839 840 841 842 842 843 844 844 845 846 846 846 847 847 848 848 849 849 849 850 850 849 849 850 850 850 851 851
808 808 807 807 809 813 818 824 833 839 843 845 838 824 817 821 819 815 811 808 806 805 808 809 811 807 807 814 810 810 809 801 798 799 801 801 800 801 801 803 804 804 805 807 808 809 810 811 813 814 815 816 818 819 821 822 823 825 826 827 828 830 831 833 834 835 836 837 838 839 840 841 841 842 843 844 844 845 846 846 846 847 847 848 848 849 849 849 850 850 850 850 850 850 850 850 851
808 808 808 807 815 818 821 828 831 835 837 836 835 825 818 818 816 813 810 808 806 806 808 809 813 807 805 809 806 809 807 800 798 795 798 798 799 800 800 802 803 803 804 806 807 808 809 811 812 813 815 815 817 818 819 821 823 824 825 826 828 829 830 832 833 834 835 837 837 839 839 840 841 841 842 843 844 845 845 846 846 847 847 848 848 849 849 850 850 850 850 850 850 850 850 850 850
808 808 807 808 813 815 824 832 832 834 828 823 827 823 818 816 813 812 811 810 807 807 807 809 812 810 809 804 801 802 800 799 797 794 795 797 798 799 800 801 801 802 803 805 806 807 808 810 811 813 814 815 816 817 819 820 821 823 824 826 827 828 829 831 832 833 835 836 837 838 839 840 840 841 842 843 844 844 845 845 846 847 847 848 849 850 850 850 850 850 850 850 850 850 849 850 850
808 810 810 813 815 816 830 836 833 834 821 815 819 818 816 813 811 811 812 812 810 808 807 808 808 812 813 805 802 798 794 795 794 794 794 795 797 798 800 800 801 802 802 804 805 807 808 809 810 812 813 815 816 817 819 819 821 822 823 825 826 827 829 830 831 832 834 835 836 837 838 839 840 840 841 842 843 844 844 845 846 846 847 848 849 850 850 851 851 851 851 850 850 850 849 849 849
809 812 813 819 825 825 833 834 831 831 819 811 812 811 812 810 809 812 813 814 814 811 809 809 806 814 812 804 807 798 793 794 792 794 794 794 796 797 799 800 801 802 803 804 805 806 808 809 810 812 813 814 815 817 818 819 821 822 823 824 825 827 828 829 830 831 833 834 835 836 838 838 839 840 841 841 842 843 844 845 845 846 847 847 848 849 850 851 851 851 851 851 850 849 849 849 849
809 813 815 823 831 832 835 834 829 824 816 811 810 809 809 809 809 811 814 813 812 810 810 808 806 814 812 805 807 798 793 794 793 794 794 795 795 797 798 799 801 801 803 803 804 806 807 809 810 811 812 814 815 816 817 819 820 821 823 824 825 826 827 828 829 831 832 833 834 835 836 837 838 839 840 841 842 843 844 844 845 846 846 847 848 848 849 850 851 851 851 850 849 849 849 849 849
811 814 818 825 832 838 839 834 829 821 816 813 811 810 808 808 809 810 813 812 810 809 809 806 807 811 810 808 805 797 795 794 793 794 794 795 795 797 798 799 800 801 803 803 804 805 806 808 809 811 811 813 814 815 817 818 819 820 822 823 824 825 827 828 829 830 831 832 833 834 835 836 837 838 840 840 841 842 843 844 844 845 846 847 847 848 849 849 850 850 850 849 849 849 849 849 850
817 817 818 829 836 840 839 835 830 822 817 814 812 810 807 806 809 810 812 812 809 810 809 808 810 809 809 809 803 795 794 794 794 794 794 795 796 797 797 799 800 801 802 802 803 804 805 807 808 810 811 812 813 814 816 817 818 819 821 822 823 825 826 827 828 829 830 832 833 834 835 835 837 838 839 839 841 841 842 843 843 844 845 846 847 848 848 849 850 850 850 849 849 849 849 849 850
822 823 822 833 839 838 837 834 828 820 818 817 815 810 806 806 810 812 812 812 809 810 809 808 808 807 810 809 800 795 793 795 795 795 796 796 796 797 798 799 800 801 802 802 803 804 805 806 807 809 810 811 812 813 814 815 817 818 820 821 822 824 825 826 827 829 829 831 832 833 834 835 836 837 838 839 840 840 841 842 842 843 844 845 846 847 848 848 849 849 849 848 848 849 849 849 850
823 826 827 834 835 834 834 831 825 822 821 818 815 810 806 807 811 811 811 811 810 811 809 805 804 805 810 807 798 795 795 795 795 796 796 796 797 797 798 799 799 801 801 802 802 803 804 805 806 807 808 810 811 812 813 814 815 816 818 819 821 822 823 825 826 828 829 830 831 832 833 834 835 836 837 838 839 839 840 841 841 842 843 844 845 846 847 848 848 849 848 848 848 848 849 849 850
822 824 828 834 833 831 830 828 825 825 824 818 813 808 806 808 808 808 809 812 811 809 805 799 800 806 809 804 800 797 795 794 794 796 795 796 796 796 797 798 799 800 800 801 801 802 803 803 804 805 807 808 809 810 811 812 813 815 816 817 819 820 822 824 825 827 828 829 830 831 833 834 835 836 837 837 838 839 839 840 841 842 842 843 844 845 846 847 848 848 847 847 848 848 849 850 850
821 822 826 833 835 833 830 828 824 825 824 816 811 808 808 807 805 807 807 811 810 802 800 798 799 806 807 805 803 795 792 793 793 795 794 795 795 796 796 796 798 798 799 800 800 801 801 802 802 804 805 806 807 808 809 810 812 813 814 816 817 819 820 822 824 825 826 828 829 831 832 833 834 835 836 837 838 839 839 840 841 841 842 843 844 845 846 846 847 846 846 847 847 848 849 850 850
819 822 829 836 838 838 831 826 825 826 822 815 810 808 810 808 804 807 804 805 806 799 800 801 798 802 802 801 797 791 791 792 793 794 794 794 794 795 795 796 797 797 798 798 798 799 799 800 801 802 803 804 805 806 807 808 810 811 813 814 815 817 819 820 822 823 825 826 828 829 831 832 833 834 836 837 837 838 839 839 840 841 842 842 843 844 845 846 846 846 846 846 847 848 849 849 850
819 824 834 839 839 839 830 823 825 825 819 814 811 809 813 811 805 805 801 801 805 802 801 800 797 796 796 794 790 789 791 791 792 793 793 794 793 794 795 795 796 796 796 796 797 797 797 798 799 800 800 802 803 804 805 806 808 810 811 813 814 816 817 819 820 822 823 824 826 827 829 830 831 833 834 835 836 836 837 838 839 840 841 841 842 843 845 845 846 846 846 846 846 848 848 849 849
823 830 838 840 839 834 824 821 820 818 817 814 812 811 812 813 810 805 804 805 805 804 801 798 796 794 792 790 788 790 791 791 791 792 792 792 792 793 793 793 794 794 794 794 795 795 795 796 796 798 799 800 801 802 803 804 806 807 809 811 812 814 815 817 818 820 821 823 824 825 827 828 829 831 832 833 834 835 836 837 838 839 840 840 841 842 844 845 845 845 845 845 846 847 848 849 849
825 832 839 838 832 825 817 816 815 815 816 812 810 810 811 812 811 806 808 810 807 807 803 798 797 793 790 788 788 790 790 790 790 790 790 790 791 791 791 791 792 792 792 792 792 792 793 794 795 795 796 798 799 800 801 802 804 805 807 808 810 812 813 815 816 818 819 821 822 823 825 826 827 829 830 831 832 833 834 835 836 837 838 839 840 841 843 844 844 844 845 845 845 847 848 848 849
825 830 838 833 824 820 815 813 813 813 813 812 812 810 810 809 808 807 809 810 808 809 805 801 798 791 789 787 787 789 788 789 789 789 789 788 789 788 789 789 789 789 789 789 789 790 791 792 793 793 794 796 797 798 800 801 802 803 805 806 808 810 811 813 815 816 817 819 820 822 823 824 826 827 829 830 831 832 833 834 835 836 837 838 839 840 842 842 843 844 844 844 845 846 847 848 848
824 827 833 826 819 821 815 811 811 811 810 812 812 811 811 807 806 807 808 812 809 805 802 800 796 789 787 787 786 787 788 788 788 788 788 786 787 786 786 786 786 786 786 787 788 789 789 790 791 792 793 794 795 796 797 798 800 802 803 805 806 808 809 811 812 814 816 817 818 820 821 823 824 826 827 828 829 830 831 832 833 834 835 836 837 839 840 841 842 842 842 843 844 845 846 847 847
823 824 823 819 818 820 814 810 811 810 810 811 812 812 810 806 807 807 809 812 805 798 796 795 792 787 785 786 785 785 786 786 787 787 785 785 784 784 784 784 784 784 784 785 785 786 787 789 790 791 792 792 793 794 795 796 798 799 801 802 804 806 807 809 810 812 813 815 817 818 820 821 823 824 825 826 827 828 829 830 831 832 833 834 836 837 838 839 840 841 841 842 843 844 845 846 847
823 822 818 816 817 818 813 811 811 811 811 812 811 809 807 808 810 807 807 806 796 790 792 791 788 784 782 784 784 784 784 783 783 783 783 782 782 782 781 781 782 782 783 783 783 784 785 786 787 788 790 791 792 792 794 795 796 797 798 800 802 803 805 807 808 810 811 813 814 816 818 819 820 822 823 824 825 826 827 828 829 830 831 833 833 835 836 837 838 839 840 841 843 843 844 845 846
822 822 817 815 814 814 812 811 812 811 812 810 808 807 808 810 810 806 804 798 789 787 788 787 785 782 781 782 782 783 782 781 780 780 779 779 779 778 779 779 779 780 781 781 782 782 783 784 785 786 788 789 790 791 792 793 794 795 797 799 800 801 803 804 806 808 810 811 813 814 816 817 818 820 821 822 823 824 825 826 827 828 829 831 831 833 834 835 836 837 838 840 841 842 843 844 845
819 820 817 815 813 812 811 811 811 810 809 807 807 808 807 807 807 806 801 793 787 784 785 785 784 782 781 781 780 780 780 780 779 777 777 776 776 776 776 777 777 778 779 779 780 780 781 782 783 785 786 787 788 789 790 791 793 794 795 797 798 800 801 802 804 806 808 809 811 812 814 815 816 817 818 820 821 821 823 824 825 826 827 829 830 831 832 833 834 835 837 838 839 841 842 843 844
818 817 817 815 815 813 811 810 808 807 807 806 808 808 805 804 806 805 797 790 785 782 783 783 783 782 781 780 778 779 779 779 778 776 775 774 775 775 775 775 775 776 776 776 777 778 779 780 782 783 784 786 787 789 790 790 792 793 794 795 796 798 799 801 803 804 806 807 809 810 812 813 814 816 817 818 819 820 821 822 823 824 826 827 828 828 829 831 832 833 834 836 837 839 840 841 842
817 817 817 814 815 812 810 810 806 806 806 804 809 808 803 803 807 805 793 786 784 784 784 781 782 782 780 779 779 779 779 779 779 778 778 776 776 776 775 776 776 776 776 776 776 777 778 779 780 781 783 784 786 787 788 790 791 792 793 794 796 797 798 800 801 803 804 805 807 809 810 812 813 814 815 817 817 818 819 820 821 823 824 825 826 827 828 829 830 831 833 834 835 837 838 839 840
816 817 817 814 815 813 809 808 805 805 805 801 805 807 802 804 807 802 789 784 785 786 784 781 781 780 779 781 780 779 781 782 782 781 783 783 782 781 779 779 778 777 777 776 776 777 777 778 779 780 782 783 785 786 787 789 790 791 793 794 796 797 798 800 801 802 803 804 806 807 808 810 811 812 813 815 816 817 818 819 820 821 822 823 824 825 827 828 829 830 832 833 834 836 837 838 839
816 817 821 817 817 816 807 805 803 804 804 797 802 812 809 804 802 794 787 786 786 786 784 781 780 778 780 782 781 783 786 787 786 786 788 787 786 784 782 782 780 778 777 776 776 776 777 777 778 779 781 782 784 785 786 788 789 791 792 794 795 797 798 799 800 802 803 804 805 806 808 808 809 810 811 812 814 815 816 817 818 819 820 822 823 824 826 827 828 829 831 832 833 834 835 836 837
817 818 823 822 826 821 803 801 801 801 804 796 801 819 815 801 795 789 787 788 787 786 784 781 779 779 782 782 783 789 791 791 791 793 792 789 788 786 784 783 781 780 778 777 776 776 777 778 779 779 781 782 783 785 786 787 789 790 792 793 795 796 797 799 800 801 802 804 805 806 807 808 809 810 810 811 813 814 815 816 817 818 820 821 822 823 825 825 826 827 829 830 831 832 833 834 835
819 822 824 827 834 823 801 799 801 801 804 796 801 819 814 799 793 787 786 787 786 786 783 779 779 781 782 783 788 795 795 796 797 797 794 791 790 788 786 784 782 781 779 778 777 776 777 778 780 780 781 782 784 785 786 788 789 790 792 793 794 795 796 798 799 800 802 803 804 805 806 807 808 809 810 811 812 814 815 816 817 818 819 820 822 822 823 824 825 826 827 828 830 831 832 833 833
821 827 830 829 833 825 806 799 799 800 802 799 804 816 813 802 794 788 785 786 786 786 783 780 781 783 785 788 794 798 799 800 799 798 796 794 793 791 789 787 784 782 780 779 778 777 778 779 781 782 782 783 784 786 787 788 790 791 792 793 794 795 796 797 798 799 801 802 803 804 805 806 807 808 809 810 812 813 814 816 817 818 819 820 821 822 823 823 824 825 826 827 828 829 830 831 832
825 829 832 829 829 828 815 801 796 798 801 802 806 812 811 802 795 789 785 785 786 786 784 782 784 788 792 796 798 799 801 800 799 799 799 796 795 794 792 790 787 784 782 781 779 778 779 780 782 782 783 784 785 787 788 789 791 792 793 794 794 795 796 796 798 799 800 801 802 803 804 805 806 807 808 809 811 812 813 815 816 817 819 819 820 821 822 823 823 824 825 826 827 828 829 829 830
829 828 830 827 825 825 820 808 798 798 802 804 806 810 808 800 794 792 787 784 785 786 785 784 787 793 797 799 800 801 802 802 802 803 802 799 798 797 796 793 790 787 785 783 781 780 780 781 782 783 784 785 786 787 789 790 791 792 793 794 795 796 796 797 797 798 799 800 801 802 803 804 806 806 807 808 809 811 812 813 815 816 817 818 819 820 821 822 823 824 824 826 827 827 828 828 829
827 826 827 826 822 821 820 812 802 799 802 805 807 809 808 801 797 794 788 784 786 786 786 788 791 797 800 800 802 804 804 805 807 807 805 802 800 799 798 796 794 791 788 786 783 782 781 782 783 784 785 786 787 788 790 791 792 793 794 795 796 797 797 798 798 799 799 800 800 801 803 804 805 806 807 808 808 810 811 812 814 815 816 817 818 819 820 821 822 823 823 824 826 827 828 828 829
821 821 823 825 824 821 816 809 801 798 804 806 806 807 806 803 799 793 785 783 787 788 788 793 798 800 802 803 805 806 806 808 810 809 806 804 802 802 801 799 798 795 792 789 786 784 784 784 785 785 786 787 788 789 790 791 792 793 795 796 797 798 798 799 799 799 800 800 800 801 802 803 804 805 806 807 807 808 809 810 812 813 814 814 815 816 817 818 819 820 821 823 824 825 827 828 829
819 821 823 823 824 822 813 807 800 797 806 806 801 804 804 800 796 789 784 785 788 790 793 799 801 803 805 807 808 809 809 811 812 810 807 806 806 805 804 802 801 798 796 793 790 789 788 788 787 788 789 789 789 790 791 793 794 795 796 796 797 798 799 800 800 800 800 801 801 802 802 803 804 805 805 806 807 807 808 809 810 811 812 812 813 814 815 816 817 819 820 822 823 823 824 825 826
819 821 823 823 823 820 811 806 801 798 807 807 802 806 805 800 795 786 784 790 793 794 798 802 804 807 809 810 811 812 812 814 813 811 810 810 809 808 806 804 803 801 799 797 795 794 793 791 791 791 792 791 792 792 793 795 796 797 798 798 799 799 799 800 801 801 801 801 802 802 803 804 804 805 806 806 806 807 807 808 808 809 810 811 812 812 814 815 816 817 818 819 821 821 821 822 823
817 819 822 823 820 818 812 806 802 802 808 808 805 808 807 801 794 788 790 797 802 802 803 806 808 810 812 813 815 815 815 815 814 814 814 813 813 811 808 807 807 806 803 801 799 797 796 795 794 794 794 794 795 795 795 796 798 799 800 800 801 801 801 801 801 802 802 802 803 803 804 804 805 806 806 807 807 807 807 807 808 808 809 809 810 811 812 813 814 815 816 817 818 819 820 820 820
817 818 821 821 818 821 821 811 806 805 807 809 808 809 809 802 793 795 802 802 805 808 808 811 812 813 815 817 817 817 817 818 817 817 817 816 816 813 811 810 810 810 807 803 802 800 798 798 797 797 797 797 797 797 798 799 799 800 801 802 802 803 803 802 802 802 803 803 804 804 805 805 806 806 807 807 807 808 808 808 808 809 809 809 810 810 811 811 812 813 814 814 815 816 817 817 817
818 817 819 819 816 820 822 816 811 808 807 808 808 812 811 801 795 801 808 806 806 810 811 814 816 816 818 818 818 819 819 820 821 820 819 819 818 816 814 814 814 813 810 807 804 802 801 800 800 799 799 799 800 800 801 801 801 802 802 803 803 804 805 804 803 803 803 804 805 805 805 806 806 806 806 807 807 808 808 808 809 809 809 809 809 810 810 811 811 811 812 812 813 814 814 815 815
819 815 814 815 814 816 817 816 816 817 817 811 812 822 817 802 797 800 806 808 810 813 814 817 819 819 819 820 821 822 821 821 822 823 822 821 821 820 818 816 817 817 815 812 809 806 804 803 802 801 801 801 802 803 803 803 804 804 805 805 806 807 807 807 806 805 804 804 805 805 806 806 806 806 806 807 807 808 808 808 808 808 809 809 809 809 810 810 810 810 811 811 811 812 813 813 813
823 815 812 813 813 815 815 815 818 823 825 816 814 827 824 809 799 793 800 810 813 815 818 820 822 822 821 823 824 824 825 823 823 824 825 824 822 821 820 819 820 822 821 817 812 808 807 806 805 805 804 804 804 805 805 805 806 807 808 808 809 809 810 810 810 808 806 805 805 806 806 806 806 807 807 807 807 807 807 808 808 808 808 808 809 809 809 809 809 809 810 810 810 811 811 810 810
821 814 812 813 811 815 815 816 821 822 824 822 817 821 827 820 804 792 798 811 815 818 822 823 824 824 824 825 826 826 827 827 825 825 827 827 825 823 822 821 822 825 825 821 815 810 809 809 809 808 807 807 807 807 807 808 808 809 810 811 811 811 811 812 812 810 808 806 806 806 807 807 807 807 807 807 807 807 807 807 807 807 807 808 808 808 808 809 809 809 809 809 808 809 808 808 808
814 811 813 812 811 815 815 818 823 823 827 830 821 819 827 819 802 798 802 808 815 819 822 825 825 826 826 826 827 827 828 829 828 827 827 828 828 826 823 820 821 826 829 825 818 813 811 811 811 811 811 810 810 810 810 810 811 812 812 812 812 812 812 813 813 812 810 807 805 806 806 807 807 807 807 807 807 807 806 806 806 806 806 806 806 807 807 807 808 807 807 807 807 807 807 807 806
811 812 813 812 813 815 816 821 823 825 831 830 820 818 826 814 796 800 806 804 810 818 821 826 827 827 829 829 830 830 829 830 830 829 829 830 831 828 823 821 823 828 831 827 821 816 813 813 813 813 814 814 814 813 813 813 814 814 815 815 814 814 813 813 814 814 812 810 807 805 806 806 806 807 807 807 807 807 806 806 806 806 805 805 805 805 806 806 806 806 806 806 806 805 805 805 804
811 813 812 814 818 818 820 823 822 829 831 821 814 813 820 818 798 796 802 796 799 811 821 827 828 828 830 831 832 832 831 831 831 830 830 831 830 828 826 827 829 830 829 826 823 819 816 815 816 816 818 818 817 817 816 817 817 817 817 817 817 816 815 815 815 815 815 813 810 807 806 806 806 807 807 807 807 806 806 806 805 805 805 805 804 804 804 804 804 804 804 804 804 804 804 803 802
811 814 816 818 822 822 826 828 827 834 826 811 810 812 818 821 800 789 798 795 793 802 813 822 828 830 831 832 834 833 833 832 832 831 831 831 830 829 830 830 830 829 827 826 826 823 819 818 818 819 820 821 820 820 819 819 819 819 819 819 819 819 818 817 817 817 816 816 815 811 807 806 805 806 806 807 807 806 805 804 804 804 804 804 804 803 803 803 802 802 802 802 802 801 801 801 800
813 816 822 827 829 828 830 831 831 831 820 807 807 811 816 813 798 798 808 807 801 802 811 821 827 831 833 834 835 835 834 833 832 832 832 832 831 830 831 831 831 829 829 829 829 826 822 820 821 821 823 823 823 822 821 821 821 821 821 821 821 821 821 821 820 819 818 817 817 814 810 807 805 805 806 807 807 807 806 804 803 803 803 803 803 802 802 801 801 800 800 799 799 799 799 799 798
815 816 820 825 830 833 832 829 830 826 815 807 805 810 811 800 799 815 821 817 814 812 817 825 827 831 833 834 836 835 835 835 834 834 833 832 831 831 833 833 833 832 832 832 831 828 825 822 823 824 824 824 823 823 822 822 822 823 823 822 822 823 823 824 823 822 821 819 818 816 813 810 807 806 806 807 807 807 806 805 803 802 801 801 801 801 800 800 799 799 798 797 796 796 796 795 795
815 812 813 816 818 825 827 822 823 821 812 807 808 809 803 794 807 826 827 823 823 821 824 827 829 832 834 834 836 835 835 835 835 835 833 832 832 834 835 835 836 836 835 834 833 830 826 824 825 825 825 825 824 824 824 823 824 824 824 824 824 825 825 826 826 825 823 821 819 817 815 812 809 807 807 807 807 806 806 805 803 802 801 800 799 799 798 798 797 796 796 795 795 794 794 793 792
813 812 812 814 809 810 816 815 814 817 817 813 807 803 801 807 821 829 827 827 827 827 829 830 832 834 834 835 835 835 835 835 835 835 834 834 835 836 838 838 839 838 836 835 833 830 828 827 828 827 827 827 827 826 826 825 826 825 825 826 826 826 826 826 826 826 824 822 820 818 816 813 810 808 807 807 807 806 806 804 803 802 800 799 797 796 796 795 795 794 793 793 792 792 792 790 790
810 812 810 811 808 805 813 817 811 814 822 815 801 799 807 815 823 827 829 830 830 831 832 832 834 835 835 835 835 835 836 835 835 835 835 836 837 839 840 840 839 837 836 835 833 831 831 830 831 831 830 830 829 828 828 827 826 826 826 827 827 827 827 827 827 826 824 822 821 819 817 815 811 809 807 807 807 807 806 805 803 802 800 799 797 795 794 793 792 792 791 790 790 790 789 788 788
805 810 807 806 810 808 813 821 819 819 825 815 799 801 806 805 812 826 831 830 831 833 833 834 835 835 835 835 834 835 834 835 835 836 837 838 839 840 840 839 838 837 836 835 834 833 833 833 834 834 833 833 832 831 829 828 827 827 828 828 828 827 827 828 827 826 824 822 820 819 818 815 812 810 808 807 807 806 806 805 804 802 801 799 797 795 793 792 790 789 789 788 788 788 787 785 785
804 806 805 807 814 814 812 820 824 823 825 818 804 802 802 797 804 821 825 824 829 832 833 834 833 833 833 833 833 833 833 835 836 837 838 839 839 839 838 838 837 837 836 836 835 835 835 836 836 836 836 835 835 833 832 831 830 830 830 830 830 830 829 829 827 825 823 821 820 819 817 814 812 810 809 807 807 806 805 804 803 802 801 799 797 795 793 791 790 788 787 786 786 786 785 783 783
806 806 807 809 813 814 813 816 818 819 821 819 811 805 800 798 802 808 811 817 826 830 832 833 831 831 832 831 831 832 833 835 836 837 838 837 838 838 837 837 837 836 837 836 836 836 836 837 837 837 837 836 836 835 833 833 832 832 832 833 832 832 830 829 827 825 823 822 821 819 816 813 811 809 808 807 806 805 804 803 802 801 800 799 797 795 793 791 789 787 786 785 784 784 783 781 780
808 809 812 812 811 812 814 814 811 814 819 818 816 811 800 799 806 803 803 814 823 825 828 829 830 831 830 830 831 832 833 834 835 836 837 836 837 837 837 837 836 836 837 836 836 836 837 837 838 837 837 836 836 835 834 834 834 833 833 833 832 831 829 828 826 825 824 823 821 819 816 814 812 810 808 806 805 804 803 802 801 800 799 798 796 794 792 790 788 787 785 784 782 781 780 779 778
807 809 810 810 811 814 820 820 810 809 815 812 814 815 802 800 809 805 805 815 819 821 824 826 828 828 828 829 830 831 832 833 834 835 835 836 836 836 836 836 836 836 836 836 836 836 837 837 838 837 837 836 836 836 835 835 834 834 833 832 831 830 828 827 826 825 824 822 820 818 816 814 812 810 809 807 806 804 803 801 800 799 798 796 795 793 791 789 788 786 784 783 781 780 778 776 776